Вернуться в каталог

NOAA 16 DEB

АктивенSSO
NORAD 41502·DEBRIS·🇺🇸 United States

Запущен Sep 21, 2000 с Vandenberg Space Force Base

Loading…

Ближайшие Пролёты (ближайшие 24 часа)

TLE

СвежийSource: Space-Track

Эпоха: Sep 12, 2026, 02:00 UTC

1 41502U 00055MA  26255.08366831  .00001694  00000-0  74916-3 0  9997
2 41502  98.6469 304.6636 0009356 216.9683 143.0852 14.24513071543702

Отслеживайте NOAA 16 DEB в реальном времени с AllMySat

Download on the App Store